Location: Spring Creek
(38.2870°N, 100.2160°W)
Time: 15:48:34
(UTC+00:00)

Meteor 2-15 - Visible Passes

Search period start: 28 September 2021 00:00
Search period end: 08 October 2021 00:00
Orbit: 937 x 955 km, 82.5° (Epoch: 28 September)

Date Brightness Start Highest point End Pass type
(mag) Time Alt. Az. Time Alt. Az. Time Alt. Az.
28 Sep 6.8 08:23:42 17° NE 08:23:42 17° NE 08:25:27 10° NNE visible
28 Sep 5.8 10:07:46 25° NNW 10:07:46 25° NNW 10:10:36 10° N visible
29 Sep 6.6 08:40:32 20° NNE 08:40:32 20° NNE 08:42:27 10° NNE visible
29 Sep 6.2 10:24:35 18° NW 10:24:35 18° NW 10:26:34 10° NNW visible
30 Sep 6.5 08:57:19 21° NNE 08:57:19 21° NNE 08:59:11 10° NNE visible
30 Sep 6.5 10:41:22 12° NW 10:41:22 12° NW 10:42:01 10° NNW visible
01 Oct 6.4 09:14:05 19° N 09:14:05 19° N 09:15:43 10° N visible
02 Oct 6.5 09:30:49 16° N 09:30:49 16° N 09:32:03 10° N visible
03 Oct 7.2 08:03:29 10° NNE 08:03:29 10° NNE 08:03:35 10° NNE visible
03 Oct 6.7 09:47:32 13° NNW 09:47:32 13° NNW 09:48:09 10° NNW visible
04 Oct 7.1 08:20:11 11° NNE 08:20:11 11° NNE 08:20:26 10° NNE visible
05 Oct 7.1 08:36:52 11° N 08:36:52 11° N 08:37:03 10° N visible
